Regional Weather Roundup
Issued by NWS

Home | Current Version | Previous Version | Graphics & Text | Print | Product List | Glossary On
Versions: 1 2 3 4 5 6 7 8 9 10 11 12 13 14 15 16 17 18 19 20 21 22 23 24 25 26 27 28 29 30 31 32 33 34 35 36 37 38 39 40 41 42 43 44 45 46 47 48 49 50
725
ASUS45 KSLC 090910
RWRUT

UTAH REGIONAL WEATHER ROUNDUP
NATIONAL WEATHER SERVICE SALT LAKE CITY UT
200 AM MST TUE FEB 09 2016

UTZ001>011-023>025-091000-

NORTHERN UTAH

CITY           SKY/WX    TMP DP  RH WIND       PRES   REMARKS
BRIGHAM CITY     N/A     11   7  86 CALM      30.63F VSB 1/4
HILL AFB       PTCLDY    26  16  66 E13       30.60S WCI  15
LOGAN          FOG        7   5  91 W3        30.63F VSB<1/4
OGDEN          PTCLDY    25  20  81 S5        30.60F WCI  19
PROVO AIRPORT  PTCLDY    18  16  93 CALM      30.63S
SALT LAKE CITY PTCLDY    26  23  88 SE7       30.62S WCI  18
VERNAL         CLOUDY     9   4  80 CALM      30.55S HAZE
WENDOVER       PTCLDY    25  21  86 CALM      30.61S
HEBER CITY     PTCLDY     5   3  92 CALM      30.59S FOG
WEST JORDAN    CLEAR     27  23  86 SW5       30.62F WCI  21

$$

UTZ012>022-026-027-091000-

SOUTHERN/CENTRAL UTAH

CITY           SKY/WX    TMP DP  RH WIND       PRES   REMARKS
BLANDING       PTCLDY    28  18  66 NW3       30.52S
BRYCE CANYON   PTCLDY    24  16  71 NW13      30.54F WCI  12
CEDAR CITY     PTCLDY    18  15  88 CALM      30.54F
DELTA          CLOUDY     8   6  91 SE5       30.61F VSB<1/4 WCI  -1
HANKSVILLE     MOCLDY    19  18  93 CALM      30.55S
MILFORD        MOCLDY    11   7  84 CALM      30.59F
MOAB/CYNLANDS  MOCLDY    17  15  92 CALM      30.51F
PRICE          PTCLDY    20  13  74 NE3       30.48S
ST GEORGE      MOSUNNY   41  25  52 S5        30.47S
KANAB          CLEAR     30  28  93 E6        30.49S WCI  24

$$

REGIONAL REPORTS     COLORADO/ARIZONA

CITY           SKY/WX    TMP DP  RH WIND       PRES   REMARKS
CRAIG, CO      CLOUDY    -4  -7  87 SW3       30.54S
GRAND JUNCTION CLOUDY    19  17  92 E8        30.53R WCI   9
RIFLE          CLOUDY    15  10  80 E3        30.54F
MONTROSE       CLOUDY    20  14  77 S10       30.53F WCI   9
CORTEZ         CLOUDY    26  17  68 E8        30.43F WCI  18
PAGE, AZ       CLEAR     34  24  67 CALM      30.47S
GRAND CANYON   CLEAR     24  19  81 CALM      30.48R
KINGMAN        CLEAR     43  25  49 SE7       30.35F
FLAGSTAFF      CLEAR     42  14  32 NE15      30.45F

$$

REGIONAL REPORTS    NEVADA/IDAHO/WYOMING

CITY           SKY/WX    TMP DP  RH WIND       PRES   REMARKS
LAS VEGAS, NV  CLEAR     53  28  38 SW3       30.33S
ELY            PTCLDY     9   5  84 S15       30.58F WCI  -8
ELKO           MOCLDY    12   8  84 E8        30.60S WCI   0
POCATELLO, ID  FOG       25  25 100 NE7       30.62F VSB 1/2 WCI  17
BURLEY         CLOUDY    28  27  96 E12       30.58F FOG     WCI  18
EVANSTON, WY   CLOUDY    22  16  78 S9        30.55F WCI  12
ROCK SPRINGS   CLOUDY    28  21  75 SW22      30.46S WCI  14

$$




USA.gov is the U.S. government's official web portal to all federal, state and local government web resources and services.